Flag for Macedonia, Republic of Weather past 2 weeks in Kumanovo, Macedonia, Republic of

Now
48 °F

Drizzle. More clouds than sun.


Feels Like: 44 °F
Forecast: 39 / 54 °F
Wind: 9 mph from Southeast

Location: Skopje-Petrovec

Current Time: Jan 31, 2015 at 4:31:13 PM

Latest Report: Jan 31, 2015 at 4:00 PM


Visibility: N/A

Pressure: 29.27 "Hg

Humidity: 66%

Dew point: 37 °F

Location of KumanovoLocation

Historic Weather in Kumanovo — Graph

°F

Kumanovo temperature yesterday

Maximum temperature yesterday: 54 °F (at 1:00 PM)
Minimum temperature yesterday: 34 °F (at 12:30 AM)
Average temperature yesterday: 46 °F

Past Weeks' High & Low Weather Summary

 TemperatureHumidityPressure
High55 °F (Jan 21, 2:00 PM)100% (Jan 18, 2:00 AM)30.33 "Hg (Jan 18, 2:00 AM)
Low23 °F (Jan 17, 1:30 AM)47% (Jan 31, 1:30 PM)29.09 "Hg (Jan 30, 10:00 PM)
Average40 °F84%29.90 "Hg
* Reported Jan 16 3:00 PM — Jan 31 3:30 PM, Kumanovo, Weather by CustomWeather, © 2014

Note: Actual official high and low records may vary slightly from our data, if they occured in-between our weather recording intervals... More about our weather records

Advertising

Kumanovo weather history for previous 24 hours

 ConditionsComfort  
Time TempWeatherWind HumidityBarometerVisibility
3:30 PM
Jan 31
50 °FMostly cloudy.13 mph54%29.27 "HgN/A
3:00 PM50 °FBroken clouds.12 mph54%29.27 "HgN/A
2:30 PM50 °FBroken clouds.13 mph47%29.27 "HgN/A
2:00 PM50 °FBroken clouds.15 mph47%29.27 "HgN/A
1:30 PM50 °FBroken clouds.3 mph47%29.27 "HgN/A
1:00 PM50 °FBroken clouds.1 mph50%29.30 "HgN/A
12:30 PM48 °FBroken clouds.1 mph54%29.30 "HgN/A
12:00 PM48 °FBroken clouds.2 mph50%29.33 "HgN/A
11:30 AM48 °FPartly sunny.No wind54%29.33 "HgN/A
11:00 AM48 °FSunny.No wind54%29.33 "Hg10 mi
10:30 AM48 °FSunny.2 mph54%29.33 "Hg10 mi
10:00 AM46 °FSunny.2 mph62%29.33 "Hg10 mi
9:30 AM45 °FSunny.No wind61%29.33 "Hg10 mi
9:00 AM43 °FPartly sunny.No wind66%29.33 "HgN/A
8:30 AM39 °FPartly sunny.No wind81%29.33 "HgN/A
8:00 AM37 °FPassing clouds.1 mph81%29.33 "HgN/A
7:30 AM39 °FPassing clouds.1 mph75%29.33 "HgN/A
7:00 AM39 °FPassing clouds.3 mph75%29.30 "HgN/A
6:30 AM39 °FClear.9 mph75%29.30 "Hg10 mi
6:00 AM41 °FClear.12 mph70%29.27 "Hg10 mi
5:30 AM41 °FPassing clouds.9 mph70%29.27 "HgN/A
5:00 AM43 °FPassing clouds.7 mph61%29.24 "HgN/A
4:00 AM43 °FClear.9 mph76%29.21 "Hg10 mi
3:30 AM45 °FPassing clouds.2 mph71%29.21 "HgN/A
3:00 AM43 °FLight rain. Mostly cloudy.7 mph81%29.21 "HgN/A
2:30 AM45 °FLight rain. Overcast.16 mph81%29.18 "HgN/A
2:00 AM46 °FPassing clouds.9 mph82%29.12 "HgN/A
1:30 AM46 °FPassing clouds.16 mph82%29.12 "HgN/A
1:00 AM45 °FMostly cloudy.7 mph93%29.12 "HgN/A
12:30 AM46 °FDrizzle. Overcast.5 mph87%29.15 "HgN/A
12:00 AM46 °FLight rain. Overcast.2 mph87%29.18 "HgN/A
11:30 PM
Jan 30
48 °FLight rain. Overcast.9 mph82%29.15 "HgN/A
11:00 PM50 °FLight rain. Overcast.15 mph76%29.09 "HgN/A
10:30 PM50 °FMostly cloudy.21 mph71%29.09 "HgN/A
10:00 PM48 °FDrizzle. Mostly cloudy.21 mph82%29.09 "HgN/A
9:30 PM50 °FDrizzle. Overcast.21 mph76%29.12 "HgN/A
9:00 PM50 °FMostly cloudy.21 mph76%29.12 "HgN/A
8:30 PM50 °FLight rain. Overcast.23 mph76%29.12 "HgN/A
8:00 PM50 °FOvercast.30 mph71%29.12 "HgN/A
7:30 PM50 °FDrizzle. Mostly cloudy.29 mph71%29.12 "HgN/A
7:00 PM48 °FDrizzle. Overcast.23 mph76%29.18 "HgN/A
6:30 PM48 °FOvercast.24 mph71%29.21 "HgN/A
6:00 PM48 °FOvercast.18 mph71%29.21 "HgN/A
5:30 PM48 °FOvercast.25 mph71%29.21 "HgN/A
5:00 PM48 °FOvercast.25 mph71%29.21 "HgN/A
4:30 PM48 °FOvercast.24 mph71%29.24 "HgN/A
4:00 PM48 °FOvercast.24 mph71%29.24 "HgN/A
Weather by CustomWeather, © 2014

See weather overviewHow to use our weather pages